Weather History for Sheridan, WY

Change the Weather History Date:

Wednesday, July 24, 2013

  Actual Average Record
Temperature  
Mean Temperature 72 °F 72 °F  
Max Temperature 91 °F 89 °F 104 °F (1959)
Min Temperature 53 °F 54 °F 36 °F (1911)
Degree Days  
Heating Degree Days 0 0  
Month to date heating degree days 0 24  
Since 1 June heating degree days 120 173  
Since 1 July heating degree days 0 24  
Cooling Degree Days 7 7  
Month to date cooling degree days 193 135  
Year to date cooling degree days 249 185  
Since 1 June cooling degree days 241 181  
Growing Degree Days 22 (Base 50)    
Moisture  
Dew Point 48 °F    
Average Humidity 49    
Maximum Humidity 77    
Minimum Humidity 21    
Precipitation  
Precipitation 0.00 in 0.03 in 0.70 in (1981)
Month to date precipitation 0.37 0.94  
Year to date precipitation 9.88 9.09  
Sea Level Pressure  
Sea Level Pressure 29.96 in    
Wind  
Wind Speed 5 mph (SE)    
Max Wind Speed 17 mph    
Max Gust Speed 23 mph    
Visibility 10 miles    
Events      
T = Trace of Precipitation, MM = Missing Value Source: NWS Daily Summary

Daily Weather History Graph

Daily Weather History Graph

Search for Another Location

Airport:

Trip Planner

Search our weather history database for the weather conditions in past years. The results will help you decide how hot, cold, wet, or windy it might be!

Date:

Astronomy

Jul. 24, 2013 Rise Set
Actual Time 5:45 AM MDT 8:42 PM MDT
Civil Twilight 5:10 AM MDT 9:17 PM MDT
Nautical Twilight 4:26 AM MDT 10:00 PM MDT
Astronomical Twilight 3:34 AM MDT 10:52 PM MDT
Moon 9:40 PM MDT (7/24) 8:17 AM MDT (7/24)
Length of Visible Light 16h 06m
Length of Day
14h 57m
Waning Gibbous, 94% of the Moon is Illuminated
Jul 24
Waning Gibbous
Jul 29
Last Quarter
Aug 6
New
Aug 14
First Quarter
Aug 20
Full

Hourly Weather History & Observations

Time (MDT) Temp. Dew Point Humidity Pressure Visibility Wind Dir Wind Speed Gust Speed Precip Events Conditions
12:53 AM 62.1 °F 50.0 °F 65% 30.06 in 10.0 mi SSW 3.5 mph - N/A   Clear
1:53 AM 59.0 °F 48.9 °F 69% 30.06 in 10.0 mi SW 5.8 mph - N/A   Clear
2:53 AM 59.0 °F 48.9 °F 69% 30.06 in 10.0 mi Calm Calm - N/A   Clear
3:53 AM 55.9 °F 48.0 °F 75% 30.05 in 10.0 mi Calm Calm - N/A   Clear
4:53 AM 55.0 °F 46.9 °F 74% 30.06 in 10.0 mi Calm Calm - N/A   Clear
5:53 AM 54.0 °F 46.9 °F 77% 30.07 in 10.0 mi Calm Calm - N/A   Clear
6:53 AM 59.0 °F 50.0 °F 72% 30.07 in 10.0 mi Calm Calm - N/A   Clear
7:53 AM 66.9 °F 48.9 °F 52% 30.06 in 10.0 mi Calm Calm - N/A   Clear
8:53 AM 73.9 °F 51.1 °F 45% 30.05 in 10.0 mi Calm Calm - N/A   Clear
9:53 AM 79.0 °F 52.0 °F 39% 30.04 in 10.0 mi East 4.6 mph - N/A   Clear
10:53 AM 82.9 °F 50.0 °F 32% 30.02 in 10.0 mi ESE 11.5 mph - N/A   Clear
11:53 AM 86.0 °F 50.0 °F 29% 29.99 in 10.0 mi ESE 12.7 mph 20.7 mph N/A   Clear
12:53 PM 88.0 °F 48.9 °F 26% 29.97 in 10.0 mi ESE 9.2 mph 18.4 mph N/A   Clear
1:53 PM 90.0 °F 46.0 °F 22% 29.94 in 10.0 mi ESE 11.5 mph - N/A   Clear
2:53 PM 89.1 °F 45.0 °F 22% 29.92 in 10.0 mi SE 10.4 mph - N/A   Clear
3:53 PM 90.0 °F 44.1 °F 20% 29.90 in 10.0 mi SE 10.4 mph - N/A   Clear
4:53 PM 89.1 °F 44.1 °F 21% 29.89 in 10.0 mi SE 6.9 mph - N/A   Clear
5:53 PM 90.0 °F 45.0 °F 21% 29.88 in 10.0 mi ENE 5.8 mph - N/A   Clear
6:53 PM 87.1 °F 45.0 °F 23% 29.87 in 10.0 mi Calm Calm - N/A   Clear
7:53 PM 84.0 °F 46.9 °F 27% 29.84 in 10.0 mi Calm Calm - N/A   Clear
8:53 PM 73.0 °F 52.0 °F 48% 29.86 in 10.0 mi SW 3.5 mph - N/A   Clear
9:53 PM 75.9 °F 48.0 °F 37% 29.86 in 10.0 mi ESE 6.9 mph - N/A   Clear
10:53 PM 72.0 °F 46.0 °F 40% 29.84 in 10.0 mi South 4.6 mph - N/A   Clear
11:53 PM 72.0 °F 45.0 °F 38% 29.83 in 10.0 mi Calm Calm - N/A   Clear